| time (UTC) | temp C | wind direction | speed KPH | gust KPH | rain 1hr cm | rain 24hr cm | rain mn cm | humidity % | barometer mb |
| 20260503054033 | 20 | 23 | 0.0 | 0.0 | 0.00 | 0.00 | 0.00 | 100 | |
| 20260503053533 | 20 | 23 | 0.0 | 0.0 | 0.00 | 0.00 | 0.00 | 100 | |
| 20260503053033 | 18 | 23 | 0.0 | 0.0 | 0.00 | 0.00 | 0.00 | 100 | |
| 20260503052533 | 19 | 23 | 0.0 | 0.0 | 0.00 | 0.00 | 0.00 | 100 | |
| 20260503052032 | 18 | 23 | 0.0 | 0.0 | 0.00 | 0.00 | 0.00 | 100 | |
| 20260503051532 | 20 | 23 | 0.0 | 0.0 | 0.00 | 0.00 | 0.00 | 100 | |
| 20260503051032 | 18 | 23 | 0.0 | 0.0 | 0.00 | 0.00 | 0.00 | 100 | |
| 20260503050531 | 19 | 23 | 0.0 | 0.0 | 0.00 | 0.00 | 0.00 | 100 | |
| 20260503050031 | 19 | 23 | 0.0 | 0.0 | 0.00 | 0.00 | 0.00 | 100 | |
| 20260503045531 | 18 | 23 | 0.0 | 0.0 | 0.00 | 0.00 | 0.00 | 100 | |
| 20260503045031 | 18 | 23 | 0.0 | 0.0 | 0.00 | 0.00 | 0.00 | 100 | |
| 20260503044530 | 17 | 23 | 0.0 | 0.0 | 0.00 | 0.00 | 0.00 | 100 | |
| 20260503044030 | 17 | 23 | 0.0 | 0.0 | 0.00 | 0.00 | 0.00 | 100 | |
| 20260503043530 | 17 | 23 | 0.0 | 0.0 | 0.00 | 0.00 | 0.00 | 100 | |
| 20260503043029 | 15 | 23 | 0.0 | 0.0 | 0.00 | 0.00 | 0.00 | 100 | |
| 20260503042529 | 16 | 23 | 0.0 | 0.0 | 0.00 | 0.00 | 0.00 | 100 | |
| 20260503042029 | 15 | 23 | 0.0 | 0.0 | 0.00 | 0.00 | 0.00 | 100 | |
| 20260503041529 | 14 | 23 | 0.0 | 0.0 | 0.00 | 0.00 | 0.00 | 100 | |
| 20260503041028 | 15 | 23 | 0.0 | 0.0 | 0.00 | 0.00 | 0.00 | 100 | |
| 20260503040528 | 15 | 23 | 0.0 | 0.0 | 0.00 | 0.00 | 0.00 | 100 | |
| 20260503040028 | 12 | 23 | 0.0 | 0.0 | 0.00 | 0.00 | 0.00 | 100 | |
| 20260503035527 | 13 | 23 | 0.0 | 3.2 | 0.00 | 0.00 | 0.00 | 100 | |
| 20260503035027 | 13 | 14 | 0.0 | 4.8 | 0.00 | 0.00 | 0.00 | 100 | |
| 20260503034527 | 12 | 11 | 3.2 | 4.8 | 0.00 | 0.00 | 0.00 | 100 | |
| 20260503034026 | 11 | 345 | 1.6 | 4.8 | 0.00 | 0.00 | 0.00 | 100 | |
| 20260503033526 | 10 | 19 | 0.0 | 0.0 | 0.00 | 0.00 | 0.00 | 100 | |
| 20260503033026 | 12 | 19 | 0.0 | 0.0 | 0.00 | 0.00 | 0.00 | 100 | |
| 20260503032526 | 13 | 19 | 0.0 | 0.0 | 0.00 | 0.00 | 0.00 | 100 | |
| 20260503032025 | 13 | 19 | 0.0 | 0.0 | 0.00 | 0.00 | 0.00 | 100 | |
| 20260503031525 | 13 | 19 | 0.0 | 3.2 | 0.00 | 0.00 | 0.00 | 100 | |
| 20260503031025 | 11 | 33 | 3.2 | 6.4 | 0.00 | 0.00 | 0.00 | 100 | |
| 20260503030524 | 12 | 355 | 0.0 | 4.8 | 0.00 | 0.00 | 0.00 | 100 | |
| 20260503030024 | 13 | 105 | 0.0 | 0.0 | 0.00 | 0.00 | 0.00 | 100 | |
| 20260503025524 | 12 | 105 | 0.0 | 0.0 | 0.00 | 0.00 | 0.00 | 100 | |
| 20260503025024 | 12 | 105 | 0.0 | 0.0 | 0.00 | 0.00 | 0.00 | 100 | |
| 20260503024523 | 11 | 105 | 0.0 | 0.0 | 0.00 | 0.00 | 0.00 | 100 | |
| 20260503024023 | 13 | 105 | 0.0 | 0.0 | 0.00 | 0.00 | 0.00 | 100 | |
| 20260503023523 | 11 | 105 | 0.0 | 4.8 | 0.00 | 0.00 | 0.00 | 100 | |
| 20260503023022 | 10 | 78 | 0.0 | 4.8 | 0.00 | 0.00 | 0.00 | 100 | |
| 20260503022522 | 11 | 97 | 0.0 | 6.4 | 0.00 | 0.00 | 0.00 | 100 | |
| 20260503022022 | 11 | 146 | 3.2 | 4.8 | 0.00 | 0.00 | 0.00 | 100 | |
| 20260503021521 | 9 | 146 | 3.2 | 8.0 | 0.00 | 0.00 | 0.00 | 100 | |
| 20260503021021 | 14 | 348 | 0.0 | 0.0 | 0.00 | 0.00 | 0.00 | 100 | |
| 20260503020521 | 15 | 348 | 0.0 | 0.0 | 0.00 | 0.00 | 0.00 | 100 | |
| 20260503020021 | 14 | 348 | 0.0 | 0.0 | 0.00 | 0.00 | 0.00 | 100 | |
| 20260503015520 | 14 | 348 | 0.0 | 0.0 | 0.00 | 0.00 | 0.00 | 100 | |
| 20260503015020 | 14 | 348 | 0.0 | 0.0 | 0.00 | 0.00 | 0.00 | 100 | |
| 20260503014520 | 15 | 348 | 0.0 | 0.0 | 0.00 | 0.00 | 0.00 | 100 | |
| 20260503014020 | 15 | 348 | 0.0 | 0.0 | 0.00 | 0.00 | 0.00 | 100 | |
| 20260503013519 | 15 | 348 | 0.0 | 0.0 | 0.00 | 0.00 | 0.00 | 100 | |
| 20260503013019 | 15 | 348 | 0.0 | 0.0 | 0.00 | 0.00 | 0.00 | 100 | |
| 20260503012519 | 15 | 348 | 0.0 | 0.0 | 0.00 | 0.00 | 0.00 | 100 | |
| 20260503012018 | 15 | 348 | 0.0 | 0.0 | 0.00 | 0.00 | 0.00 | 100 | |
| 20260503011518 | 15 | 348 | 0.0 | 0.0 | 0.00 | 0.00 | 0.00 | 100 | |
| 20260503011018 | 13 | 348 | 0.0 | 1.6 | 0.00 | 0.00 | 0.00 | 100 | |
| 20260503010517 | 13 | 340 | 0.0 | 1.6 | 0.00 | 0.00 | 0.00 | 100 | |
| 20260503010017 | 13 | 300 | 0.0 | 0.0 | 0.00 | 0.00 | 0.00 | 100 | |
| 20260503005517 | 12 | 300 | 0.0 | 0.0 | 0.00 | 0.00 | 0.00 | 100 | |
| 20260503005017 | 13 | 300 | 0.0 | 0.0 | 0.00 | 0.00 | 0.00 | 100 | |
| 20260503004516 | 14 | 300 | 0.0 | 3.2 | 0.00 | 0.00 | 0.00 | 100 | |
| 20260503004016 | 14 | 310 | 1.6 | 4.8 | 0.00 | 0.00 | 0.00 | 100 | |
| 20260503003516 | 13 | 279 | 1.6 | 4.8 | 0.00 | 0.00 | 0.00 | 100 | |
| 20260503003015 | 14 | 330 | 0.0 | 0.0 | 0.00 | 0.00 | 0.00 | 100 | |
| 20260503002515 | 14 | 330 | 0.0 | 0.0 | 0.00 | 0.00 | 0.00 | 100 | |
| 20260503002015 | 15 | 330 | 0.0 | 0.0 | 0.00 | 0.00 | 0.00 | 100 | |
| 20260503001515 | 14 | 330 | 0.0 | 0.0 | 0.00 | 0.00 | 0.00 | 100 | |
| 20260503001014 | 13 | 330 | 0.0 | 0.0 | 0.00 | 0.00 | 0.00 | 100 | |
| 20260503000514 | 15 | 330 | 0.0 | 0.0 | 0.00 | 0.00 | 0.00 | 100 | |
| 20260503000014 | 13 | 330 | 0.0 | 0.0 | 0.00 | 0.00 | 0.00 | 100 | |
| 20260502235513 | 14 | 330 | 0.0 | 0.0 | 0.00 | 0.00 | 0.00 | 100 | |
| 20260502235013 | 14 | 330 | 0.0 | 0.0 | 0.00 | 0.00 | 0.00 | 100 | |
| 20260502234513 | 15 | 330 | 0.0 | 0.0 | 0.00 | 0.00 | 0.00 | 100 | |
| 20260502234013 | 13 | 330 | 0.0 | 0.0 | 0.00 | 0.00 | 0.00 | 100 | |
| 20260502233512 | 14 | 330 | 0.0 | 3.2 | 0.00 | 0.00 | 0.00 | 100 | |
| 20260502233012 | 14 | 341 | 0.0 | 1.6 | 0.00 | 0.00 | 0.00 | 100 | |
| 20260502232512 | 15 | 343 | 1.6 | 3.2 | 0.00 | 0.00 | 0.00 | 100 | |
| 20260502232011 | 15 | 340 | 1.6 | 1.6 | 0.00 | 0.00 | 0.00 | 100 | |
| 20260502231511 | 15 | 292 | 0.0 | 0.0 | 0.00 | 0.00 | 0.00 | 100 | |
| 20260502231011 | 15 | 292 | 0.0 | 0.0 | 0.00 | 0.00 | 0.00 | 100 | |
| 20260502230510 | 15 | 292 | 0.0 | 4.8 | 0.00 | 0.00 | 0.00 | 100 | |
| 20260502230010 | 15 | 300 | 0.0 | 3.2 | 0.00 | 0.00 | 0.00 | 100 | |
| 20260502225510 | 15 | 338 | 1.6 | 4.8 | 0.00 | 0.00 | 0.00 | 100 | |
| 20260502225010 | 15 | 329 | 1.6 | 8.0 | 0.00 | 0.00 | 0.00 | 100 | |
| 20260502224509 | 15 | 315 | 3.2 | 3.2 | 0.00 | 0.00 | 0.00 | 100 | |
| 20260502224009 | 15 | 343 | 1.6 | 6.4 | 0.00 | 0.00 | 0.00 | 100 | |
| 20260502223509 | 15 | 337 | 3.2 | 8.0 | 0.00 | 0.00 | 0.00 | 100 | |
| 20260502223008 | 15 | 296 | 6.4 | 6.4 | 0.00 | 0.00 | 0.00 | 100 | |
| 20260502222508 | 15 | 324 | 1.6 | 4.8 | 0.00 | 0.00 | 0.00 | 100 | |
| 20260502222008 | 15 | 300 | 1.6 | 4.8 | 0.00 | 0.00 | 0.00 | 100 | |
| 20260502221508 | 16 | 12 | 1.6 | 4.8 | 0.00 | 0.00 | 0.00 | 100 | |
| 20260502221007 | 16 | 323 | 1.6 | 4.8 | 0.00 | 0.00 | 0.00 | 100 | |
| 20260502220507 | 16 | 319 | 1.6 | 4.8 | 0.00 | 0.00 | 0.00 | 100 | |
| 20260502220007 | 15 | 338 | 0.0 | 4.8 | 0.00 | 0.00 | 0.00 | 100 | |
| 20260502215506 | 15 | 322 | 1.6 | 6.4 | 0.00 | 0.00 | 0.00 | 100 | |
| 20260502215006 | 15 | 310 | 3.2 | 6.4 | 0.00 | 0.00 | 0.00 | 100 | |
| 20260502214506 | 15 | 323 | 0.0 | 6.4 | 0.00 | 0.00 | 0.00 | 100 | |
| 20260502214005 | 15 | 303 | 4.8 | 6.4 | 0.00 | 0.00 | 0.00 | 100 | |
| 20260502213505 | 15 | 299 | 0.0 | 0.0 | 0.00 | 0.00 | 0.00 | 100 | |
| 20260502213005 | 16 | 299 | 0.0 | 0.0 | 0.00 | 0.00 | 0.00 | 100 | |
| 20260502212505 | 15 | 299 | 0.0 | 3.2 | 0.00 | 0.00 | 0.00 | 100 | |
| 20260502212004 | 16 | 306 | 3.2 | 4.8 | 0.00 | 0.00 | 0.00 | 100 | |
| 20260502211504 | 16 | 150 | 0.0 | 0.0 | 0.00 | 0.00 | 0.00 | 100 | |
| 20260502211004 | 16 | 150 | 0.0 | 0.0 | 0.00 | 0.00 | 0.00 | 100 | |
| 20260502210503 | 16 | 150 | 0.0 | 0.0 | 0.00 | 0.00 | 0.00 | 100 | |
| 20260502210003 | 16 | 150 | 0.0 | 0.0 | 0.00 | 0.00 | 0.00 | 100 | |
| 20260502205503 | 16 | 150 | 0.0 | 0.0 | 0.00 | 0.00 | 0.00 | 100 | |
| 20260502205003 | 17 | 150 | 0.0 | 0.0 | 0.00 | 0.00 | 0.00 | 100 | |
| 20260502204502 | 16 | 150 | 0.0 | 0.0 | 0.00 | 0.00 | 0.00 | 100 | |
| 20260502204002 | 16 | 150 | 0.0 | 0.0 | 0.00 | 0.00 | 0.00 | 100 | |
| 20260502203502 | 16 | 150 | 0.0 | 0.0 | 0.00 | 0.00 | 0.00 | 100 | |
| 20260502203001 | 17 | 150 | 0.0 | 0.0 | 0.00 | 0.00 | 0.00 | 100 | |
| 20260502202501 | 17 | 150 | 0.0 | 0.0 | 0.00 | 0.00 | 0.00 | 100 | |
| 20260502202001 | 17 | 150 | 0.0 | 0.0 | 0.00 | 0.00 | 0.00 | 100 | |
| 20260502201501 | 17 | 150 | 0.0 | 0.0 | 0.00 | 0.00 | 0.00 | 100 | |
| 20260502201000 | 17 | 150 | 0.0 | 0.0 | 0.00 | 0.00 | 0.00 | 100 | |
| 20260502200500 | 17 | 150 | 0.0 | 0.0 | 0.00 | 0.00 | 0.00 | 100 | |
| 20260502200000 | 17 | 150 | 0.0 | 0.0 | 0.00 | 0.00 | 0.00 | 100 | |
| 20260502195459 | 17 | 150 | 0.0 | 0.0 | 0.00 | 0.00 | 0.00 | 100 | |
| 20260502194959 | 17 | 150 | 0.0 | 0.0 | 0.00 | 0.00 | 0.00 | 100 | |
| 20260502194459 | 17 | 150 | 0.0 | 0.0 | 0.00 | 0.00 | 0.00 | 100 | |
| 20260502193958 | 17 | 150 | 0.0 | 0.0 | 0.00 | 0.00 | 0.00 | 100 | |
| 20260502193458 | 17 | 150 | 0.0 | 0.0 | 0.00 | 0.00 | 0.00 | 100 | |
| 20260502192958 | 17 | 150 | 0.0 | 0.0 | 0.00 | 0.00 | 0.00 | 100 | |
| 20260502192458 | 18 | 150 | 0.0 | 0.0 | 0.00 | 0.00 | 0.00 | 100 | |
| 20260502191957 | 17 | 150 | 0.0 | 0.0 | 0.00 | 0.00 | 0.00 | 100 | |
| 20260502191457 | 18 | 150 | 0.0 | 0.0 | 0.00 | 0.00 | 0.00 | 100 | |
| 20260502190957 | 17 | 150 | 0.0 | 0.0 | 0.00 | 0.00 | 0.00 | 100 | |
| 20260502190456 | 18 | 150 | 0.0 | 0.0 | 0.00 | 0.00 | 0.00 | 100 | |
| 20260502185956 | 18 | 150 | 0.0 | 0.0 | 0.00 | 0.00 | 0.00 | 100 | |
| 20260502185456 | 18 | 150 | 0.0 | 0.0 | 0.00 | 0.00 | 0.00 | 100 | |
| 20260502184956 | 18 | 150 | 0.0 | 0.0 | 0.00 | 0.00 | 0.00 | 100 | |
| 20260502184455 | 18 | 150 | 0.0 | 0.0 | 0.00 | 0.00 | 0.00 | 100 | |
| 20260502183955 | 18 | 150 | 0.0 | 0.0 | 0.00 | 0.00 | 0.00 | 100 | |
| 20260502183455 | 18 | 150 | 0.0 | 0.0 | 0.00 | 0.00 | 0.00 | 100 | |
| 20260502182954 | 18 | 150 | 0.0 | 0.0 | 0.00 | 0.00 | 0.00 | 100 | |
| 20260502182454 | 19 | 150 | 0.0 | 0.0 | 0.00 | 0.00 | 0.00 | 100 | |
| 20260502181954 | 19 | 150 | 0.0 | 0.0 | 0.00 | 0.00 | 0.00 | 100 | |
| 20260502181454 | 18 | 150 | 0.0 | 0.0 | 0.00 | 0.00 | 0.00 | 100 | |
| 20260502180953 | 19 | 150 | 0.0 | 0.0 | 0.00 | 0.00 | 0.00 | 100 | |
| 20260502180453 | 19 | 150 | 0.0 | 0.0 | 0.00 | 0.00 | 0.00 | 100 | |
| 20260502170449 | 21 | 167 | 0.0 | 9.7 | 0.00 | 0.00 | 0.00 | 100 | |
| 20260502163948 | 22 | 175 | 8.0 | 12.9 | 0.00 | 0.00 | 0.00 | 100 | |
| 20260502163448 | 22 | 167 | 8.0 | 12.9 | 0.00 | 0.00 | 0.00 | 100 | |
| 20260502162947 | 22 | 151 | 6.4 | 11.3 | 0.00 | 0.00 | 0.00 | 100 | |
| 20260502162447 | 22 | 140 | 8.0 | 9.7 | 0.00 | 0.00 | 0.00 | 100 | |
| 20260502161947 | 22 | 172 | 8.0 | 14.5 | 0.00 | 0.00 | 0.00 | 100 | |
| 20260502161447 | 22 | 106 | 4.8 | 12.9 | 0.00 | 0.00 | 0.00 | 100 | |
| 20260502160946 | 22 | 104 | 6.4 | 12.9 | 0.00 | 0.00 | 0.00 | 100 | |
| 20260502160446 | 22 | 105 | 4.8 | 14.5 | 0.00 | 0.00 | 0.00 | 100 | |
| 20260502151943 | 22 | 171 | 8.0 | 12.9 | 0.00 | 0.00 | 0.00 | 100 | |
| 20260502151443 | 22 | 104 | 6.4 | 16.1 | 0.00 | 0.00 | 0.00 | 100 | |
| 20260502150943 | 22 | 133 | 11.3 | 16.1 | 0.00 | 0.00 | 0.00 | 100 | |
| 20260502150442 | 23 | 206 | 3.2 | 8.0 | 0.00 | 0.00 | 0.00 | 100 | |
| 20260502130435 | 26 | 181 | 6.4 | 11.3 | 0.00 | 0.00 | 0.00 | 100 | |
| 20260502123434 | 26 | 271 | 0.0 | 1.6 | 0.00 | 0.00 | 0.00 | 100 | |
| 20260502122933 | 25 | 222 | 1.6 | 9.7 | 0.00 | 0.00 | 0.00 | 100 | |
| 20260502122433 | 24 | 126 | 3.2 | 11.3 | 0.00 | 0.00 | 0.00 | 100 | |
| 20260502121933 | 24 | 171 | 1.6 | 9.7 | 0.00 | 0.00 | 0.00 | 100 | |
| 20260502121433 | 23 | 178 | 9.7 | 12.9 | 0.00 | 0.00 | 0.00 | 100 | |
| 20260502120932 | 24 | 42 | 0.0 | 9.7 | 0.00 | 0.00 | 0.00 | 100 | |
| 20260502120432 | 23 | 126 | 3.2 | 17.7 | 0.00 | 0.00 | 0.00 | 100 | |
| 20260502115932 | 23 | 82 | 6.4 | 17.7 | 0.00 | 0.00 | 0.00 | 100 | |
| 20260502115431 | 23 | 108 | 9.7 | 9.7 | 0.00 | 0.00 | 0.00 | 100 | |
| 20260502114931 | 25 | 209 | 0.0 | 3.2 | 0.00 | 0.00 | 0.00 | 100 | |
| 20260502114431 | 23 | 233 | 3.2 | 12.9 | 0.00 | 0.00 | 0.00 | 100 | |
| 20260502113930 | 23 | 188 | 11.3 | 17.7 | 0.00 | 0.00 | 0.00 | 100 | |
| 20260502113430 | 23 | 122 | 3.2 | 14.5 | 0.00 | 0.00 | 0.00 | 100 | |
| 20260502112930 | 23 | 189 | 11.3 | 12.9 | 0.00 | 0.00 | 0.00 | 100 | |
| 20260502112430 | 25 | 326 | 0.0 | 9.7 | 0.00 | 0.00 | 0.00 | 100 | |
| 20260502111929 | 25 | 330 | 6.4 | 9.7 | 0.00 | 0.00 | 0.00 | 100 | |
| 20260502111429 | 25 | 220 | 3.2 | 17.7 | 0.00 | 0.00 | 0.00 | 100 | |
| 20260502110929 | 24 | 126 | 16.1 | 16.1 | 0.00 | 0.00 | 0.00 | 100 | |
| 20260502110428 | 23 | 205 | 9.7 | 14.5 | 0.00 | 0.00 | 0.00 | 100 | |
| 20260502105928 | 23 | 202 | 6.4 | 14.5 | 0.00 | 0.00 | 0.00 | 100 | |
| 20260502105428 | 23 | 206 | 11.3 | 14.5 | 0.00 | 0.00 | 0.00 | 100 | |
| 20260502104928 | 23 | 208 | 12.9 | 17.7 | 0.00 | 0.00 | 0.00 | 100 | |
| 20260502104427 | 23 | 153 | 11.3 | 14.5 | 0.00 | 0.00 | 0.00 | 100 | |
| 20260502103927 | 25 | 177 | 3.2 | 11.3 | 0.00 | 0.00 | 0.00 | 100 | |
| 20260502103427 | 23 | 108 | 3.2 | 20.9 | 0.00 | 0.00 | 0.00 | 100 | |
| 20260502102926 | 24 | 66 | 0.0 | 9.7 | 0.00 | 0.00 | 0.00 | 100 | |
| 20260502102426 | 21 | 126 | 4.8 | 16.1 | 0.00 | 0.00 | 0.00 | 100 | |
| 20260502101926 | 23 | 16 | 0.0 | 14.5 | 0.00 | 0.00 | 0.00 | 100 | |
| 20260502101426 | 25 | 149 | 4.8 | 9.7 | 0.00 | 0.00 | 0.00 | 100 | |
| 20260502100925 | 23 | 87 | 1.6 | 16.1 | 0.00 | 0.00 | 0.00 | 100 | |
| 20260502100425 | 23 | 150 | 9.7 | 16.1 | 0.00 | 0.00 | 0.00 | 100 | |
| 20260502091422 | 22 | 104 | 4.8 | 16.1 | 0.00 | 0.00 | 0.00 | 100 | |
| 20260502090922 | 24 | 115 | 0.0 | 11.3 | 0.00 | 0.00 | 0.00 | 100 | |
| 20260502090421 | 22 | 182 | 6.4 | 12.9 | 0.00 | 0.00 | 0.00 | 100 | |
| 20260502071415 | 21 | 153 | 9.7 | 9.7 | 0.00 | 0.00 | 0.00 | 100 | |
| 20260502070915 | 22 | 142 | 1.6 | 6.4 | 0.00 | 0.00 | 0.00 | 100 | |
| 20260502070414 | 24 | 99 | 3.2 | 4.8 | 0.00 | 0.00 | 0.00 | 100 | |
| 20260502065914 | 22 | 187 | 1.6 | 4.8 | 0.00 | 0.00 | 0.00 | 100 | |
| 20260502065414 | 22 | 223 | 3.2 | 6.4 | 0.00 | 0.00 | 0.00 | 100 | |
| 20260502064914 | 23 | 212 | 1.6 | 3.2 | 0.00 | 0.00 | 0.00 | 100 | |
| 20260502064413 | 22 | 165 | 0.0 | 0.0 | 0.00 | 0.00 | 0.00 | 100 | |
| 20260502063913 | 24 | 165 | 0.0 | 3.2 | 0.00 | 0.00 | 0.00 | 100 | |
| 20260502063413 | 22 | 168 | 1.6 | 6.4 | 0.00 | 0.00 | 0.00 | 100 | |
| 20260502062912 | 22 | 167 | 3.2 | 3.2 | 0.00 | 0.00 | 0.00 | 100 | |
| 20260502062412 | 21 | 129 | 1.6 | 4.8 | 0.00 | 0.00 | 0.00 | 100 | |
| 20260502061912 | 21 | 177 | 0.0 | 0.0 | 0.00 | 0.00 | 0.00 | 100 | |
| 20260502061411 | 20 | 177 | 0.0 | 3.2 | 0.00 | 0.00 | 0.00 | 100 | |
| 20260502060911 | 20 | 104 | 0.0 | 3.2 | 0.00 | 0.00 | 0.00 | 100 | |
| 20260502060411 | 22 | 201 | 0.0 | 0.0 | 0.00 | 0.00 | 0.00 | 100 | |
| 20260502055911 | 21 | 295 | 0.0 | 0.0 | 0.00 | 0.00 | 0.00 | 100 | |
| 20260502055410 | 21 | 295 | 0.0 | 0.0 | 0.00 | 0.00 | 0.00 | 100 | |
| 20260502054910 | 21 | 295 | 0.0 | 0.0 | 0.00 | 0.00 | 0.00 | 100 | |
| 20260502054410 | 20 | 295 | 0.0 | 0.0 | 0.00 | 0.00 | 0.00 | 100 |